Wind_Speed
11 11 13 8 3 4 10 9 12 5 5 9 2 4 1 9 5 5 20 13 17 21 25 25 25 21 20 20 20 19 17 16 14 14 14 15 15 15 15 17 18 20 20 20 20 20 21 20 21
14 15 11 5 4 8 9 11 19 12 5 3 4 5 3 3 12 16 20 20 16 23 27 27 24 21 21 20 20 18 17 17 15 14 15 16 16 17 16 17 21 23 22 19 18 20 21 22 21
14 15 8 4 5 12 7 14 15 8 12 3 3 2 3 5 10 14 10 26 22 21 27 29 25 22 21 21 20 19 18 17 16 16 17 18 20 18 16 16 14 15 22 20 20 19 19 19 20
15 14 12 7 12 16 19 11 6 10 11 11 9 3 3 11 10 9 20 27 24 17 25 29 25 23 22 21 21 20 19 18 17 18 19 20 21 21 19 15 13 20 19 15 15 18 18 15 17
19 9 6 9 14 15 15 28 5 3 14 12 15 6 6 7 8 11 24 25 27 26 25 28 25 24 23 21 21 20 19 18 18 19 20 22 19 17 17 19 20 20 20 19 18 16 17 15 16
15 11 7 16 15 19 17 15 11 8 10 14 11 10 7 10 12 14 29 26 27 26 26 27 26 23 23 22 21 20 20 20 20 21 20 20 18 15 17 19 20 21 20 18 18 18 18 16 16
15 8 17 14 19 17 19 30 9 9 12 16 9 6 8 11 14 19 29 25 23 27 28 29 27 24 23 22 22 21 21 22 23 23 22 22 20 20 20 21 22 21 20 20 19 18 18 18 17
24 7 13 15 14 14 20 26 27 22 10 16 17 7 8 18 17 25 25 24 23 27 27 30 28 26 26 25 24 24 25 26 26 25 24 22 21 21 25 23 20 20 19 18 20 18 16 17 17
32 11 14 19 19 23 19 7 27 28 20 16 24 7 18 22 25 32 27 26 27 29 27 29 29 27 28 28 26 25 24 24 25 22 19 19 21 21 21 22 20 17 15 15 16 18 17 16 18
18 17 23 17 15 16 17 14 19 8 10 15 13 15 17 21 28 30 31 32 30 29 29 28 29 31 30 28 27 25 26 25 25 23 20 21 20 20 20 19 17 16 15 14 15 16 14 12 13
30 24 20 22 27 25 19 11 21 13 10 22 23 26 23 25 27 29 30 33 34 31 32 31 33 31 30 29 28 27 28 32 29 25 20 15 15 17 18 16 14 13 13 13 14 14 11 11 10
17 29 25 21 37 22 17 17 12 20 12 27 31 26 26 26 29 31 32 34 34 35 37 36 34 32 33 33 37 39 35 33 28 24 19 15 12 11 12 13 13 12 11 12 13 13 12 11 9
30 16 34 34 35 28 25 11 7 19 21 16 26 26 28 30 28 29 31 35 37 36 39 36 35 33 37 34 32 32 32 30 26 22 18 16 12 9 9 11 11 9 10 11 11 11 12 11 12
15 29 24 30 36 31 21 9 10 12 23 9 16 30 26 29 28 31 30 34 37 38 38 37 37 35 35 35 34 35 33 29 23 19 16 14 13 13 10 10 11 11 10 12 16 15 14 12 10
38 18 24 27 24 11 22 15 14 23 19 18 17 18 20 24 25 32 38 36 40 40 38 39 36 38 36 37 37 35 31 27 23 19 18 16 13 10 9 8 8 10 9 12 15 16 14 13 12
29 24 25 23 28 20 13 19 11 23 26 18 24 21 22 23 26 27 32 36 38 40 39 42 39 40 38 40 38 35 32 28 25 22 21 19 17 13 10 7 5 7 8 11 15 16 16 15 14
18 25 27 12 26 16 17 6 12 28 27 23 28 27 23 23 24 26 29 32 36 41 43 44 39 42 40 39 38 34 31 27 25 25 23 23 20 16 12 10 5 6 8 10 15 19 16 17 17
15 23 21 16 15 25 17 18 8 34 32 27 24 30 26 27 26 26 28 27 35 37 40 39 43 43 40 37 39 36 30 28 30 27 24 20 18 16 13 11 6 3 8 12 13 16 20 20 19
14 12 21 19 17 12 20 15 19 15 16 21 30 27 29 34 31 26 30 26 30 37 38 37 51 35 38 38 37 34 34 32 30 26 24 24 21 18 16 12 9 4 8 13 15 15 15 17 16
22 10 14 12 20 19 19 23 20 18 15 15 23 27 27 30 34 33 30 29 29 36 38 40 39 39 41 37 36 38 35 31 30 26 26 24 22 20 16 13 10 5 7 11 13 14 15 16 16
23 25 11 11 10 11 17 20 19 19 18 21 18 12 17 30 35 34 34 33 31 33 38 39 38 41 36 41 37 36 34 24 29 30 28 25 23 21 20 16 14 10 6 8 11 12 14 15 16
22 20 23 12 12 5 10 5 13 15 12 9 12 11 14 23 28 32 29 30 31 33 37 39 38 39 40 41 38 36 29 34 29 28 28 28 28 24 21 19 17 15 12 7 6 11 14 14 14
3 16 19 16 7 6 16 3 7 15 14 10 9 13 12 15 15 20 24 27 28 31 35 37 39 40 37 35 34 29 34 31 30 32 32 28 27 24 23 20 20 19 16 13 11 11 13 14 14
9 4 8 7 7 10 16 12 8 14 11 8 9 17 17 14 14 18 20 25 29 29 32 35 36 36 40 42 38 34 31 32 29 32 32 30 28 25 22 20 19 17 17 16 14 12 12 13 12
3 8 3 6 8 4 18 15 1 4 7 5 12 18 14 12 14 19 21 24 27 29 30 33 34 36 33 36 37 32 31 26 29 34 35 32 28 28 25 21 18 17 16 14 15 14 12 11 12
5 4 2 1 2 4 7 7 3 5 6 10 21 17 14 13 14 17 19 21 24 26 28 30 32 34 34 33 33 32 29 28 31 31 30 28 28 26 22 20 19 16 15 14 13 12 12 12 12
1 3 3 2 4 2 4 4 4 6 6 6 12 16 13 13 14 16 17 21 21 23 26 27 29 31 32 32 33 31 30 31 31 32 27 26 27 25 23 19 17 15 14 13 11 10 10 9 10
5 7 3 2 4 1 3 4 3 5 7 7 7 11 13 13 14 16 18 19 21 24 24 24 26 28 30 31 32 31 32 31 28 29 27 24 23 21 22 20 16 14 13 12 11 10 10 9 9
8 5 4 1 3 3 5 3 5 2 7 7 6 12 14 13 14 15 17 18 20 21 23 25 26 28 29 29 29 28 31 28 30 27 27 26 26 22 18 16 15 14 13 13 12 12 11 10 10
14 9 5 3 4 2 1 2 5 2 8 11 10 14 13 14 15 15 16 17 19 20 22 23 25 27 28 29 30 31 31 33 33 30 27 21 19 18 16 17 16 16 15 14 12 11 11 10 9
Wind_Direction
187 160 133 170 197 227 229 233 255 287 359 327 176 327 243 277 200 165 147 144 184 170 166 161 153 151 154 154 151 151 146 141 137 131 131 130 128 127 128 127 125 117 115 113 111 112 112 115 116
174 146 169 216 231 221 236 232 230 244 133 326 46 291 48 87 93 129 154 142 172 167 165 160 152 157 154 151 153 151 147 142 136 135 132 130 127 126 125 128 129 124 121 110 108 109 110 111 113
157 179 176 204 225 229 229 219 223 168 118 147 101 256 149 69 97 130 155 148 161 167 164 161 154 159 154 154 156 151 148 145 142 138 135 134 129 122 117 119 117 134 123 119 116 107 105 108 111
169 198 254 236 224 224 252 274 19 127 133 166 187 160 145 106 138 169 135 145 152 166 163 162 158 160 157 157 157 152 153 148 148 142 141 137 128 117 113 126 130 129 122 127 126 120 104 102 113
185 199 228 227 234 251 225 247 117 261 152 180 211 138 121 169 169 163 144 157 155 168 162 163 164 163 159 158 156 154 153 152 147 148 144 140 132 118 113 114 117 129 129 124 121 119 118 119 116
188 219 215 225 218 235 248 254 152 219 184 181 213 194 131 203 186 156 146 157 178 168 164 165 167 165 162 161 161 159 156 154 153 149 150 146 135 120 125 130 123 120 120 120 121 119 114 120 125
210 210 221 223 218 233 224 249 173 206 209 190 193 214 148 162 179 154 147 170 174 165 171 168 167 166 166 165 164 162 160 157 155 152 150 147 137 124 124 128 127 127 125 126 124 119 112 112 119
216 242 232 224 237 234 225 227 186 190 195 195 190 208 159 173 166 145 155 173 165 169 172 170 169 168 169 170 172 171 169 167 165 164 168 163 152 141 134 133 131 132 133 133 127 113 106 109 111
214 232 233 222 217 227 242 251 199 194 213 211 186 97 147 173 157 160 158 165 168 172 174 172 171 171 176 174 173 173 171 170 170 168 168 159 142 141 142 141 139 135 136 133 134 135 124 112 108
209 221 227 235 239 237 238 254 165 169 202 238 154 142 163 161 169 169 167 169 171 171 173 174 173 178 174 173 170 169 170 170 167 165 154 143 144 149 142 136 134 133 136 139 152 147 134 134 120
220 226 217 234 242 250 252 224 175 181 207 231 187 181 170 168 174 170 171 175 174 173 172 174 181 176 170 170 167 164 161 154 156 154 150 151 152 153 154 151 152 150 139 135 142 155 150 148 138
234 230 234 225 240 243 249 244 197 212 190 228 228 201 182 188 182 176 176 181 177 177 175 180 183 176 171 166 165 161 163 162 159 154 154 155 155 167 168 165 164 165 152 152 151 155 159 157 144
224 218 229 250 260 260 270 255 212 219 203 247 203 197 197 195 195 181 177 186 183 180 181 182 183 177 168 171 172 168 164 161 161 162 163 160 154 145 167 172 172 175 163 164 161 160 154 154 147
199 226 233 221 234 249 256 260 216 248 204 173 151 177 185 192 194 182 182 189 189 189 187 183 183 182 176 172 176 170 169 169 169 169 166 161 171 173 165 169 177 184 179 171 162 162 159 160 155
227 222 223 234 238 260 232 250 225 234 226 187 173 172 181 186 187 186 187 187 191 190 185 186 192 184 180 176 178 175 173 174 175 176 174 173 163 165 162 158 171 186 189 177 167 165 167 165 159
223 228 228 212 228 234 228 238 200 225 242 209 176 178 180 183 189 189 192 191 191 193 191 200 185 184 186 180 181 185 182 184 181 181 176 172 175 169 170 150 160 185 186 184 174 171 171 167 159
214 221 219 209 208 194 213 187 212 214 234 235 181 181 182 182 185 185 197 194 195 197 193 198 200 193 188 188 186 190 185 184 181 181 177 173 172 171 170 160 154 197 202 196 188 176 181 171 165
199 214 213 209 201 201 207 217 214 214 215 229 216 184 192 184 187 189 194 197 197 199 201 200 188 185 186 188 191 187 188 184 182 180 178 173 177 172 180 161 158 190 210 200 199 196 182 181 181
244 225 215 208 196 186 218 214 216 231 213 218 224 208 192 188 183 183 186 202 191 201 205 202 203 192 198 194 185 189 183 179 180 179 185 181 177 181 170 168 171 214 221 206 200 199 198 195 191
221 232 213 219 196 199 209 218 213 225 229 235 204 199 218 195 185 183 185 200 196 195 203 204 207 205 201 203 202 189 181 183 177 181 179 184 180 179 173 175 154 169 218 206 196 197 201 196 195
230 223 213 200 220 208 211 218 211 214 207 214 212 217 209 207 158 170 182 193 197 199 200 203 197 196 206 198 194 196 176 193 185 182 184 180 189 188 186 179 162 161 191 200 200 206 205 203 196
210 206 218 222 175 193 189 214 214 209 205 175 130 139 122 142 156 169 180 194 199 202 201 204 199 207 202 192 198 198 208 189 192 200 189 191 190 188 184 184 171 169 175 189 224 224 214 206 205
212 187 205 212 214 194 186 253 203 196 199 155 127 132 139 133 155 175 188 203 201 202 201 201 205 197 195 198 197 210 191 200 199 190 193 188 188 187 190 188 184 178 177 182 201 224 219 219 216
150 91 218 205 203 212 197 181 219 189 198 138 115 122 130 147 149 169 193 202 203 203 202 202 201 199 193 195 197 201 205 192 199 196 194 194 191 190 190 192 189 187 188 188 191 200 213 223 223
252 122 161 185 213 186 182 193 97 65 14 73 127 118 136 156 161 178 187 196 200 200 200 198 201 198 193 198 189 196 201 204 207 201 193 191 190 194 193 194 192 193 193 200 198 192 206 219 225
236 196 141 211 122 113 172 182 143 70 58 59 95 111 138 163 175 180 186 190 194 196 199 199 197 197 195 196 196 190 194 193 193 194 191 193 190 187 185 188 189 191 197 202 205 208 201 206 221
348 207 328 42 187 84 129 81 107 93 98 103 89 104 129 157 171 176 181 184 190 193 198 200 199 196 196 193 193 191 190 195 189 189 190 185 184 183 184 187 187 190 194 199 205 208 216 221 221
8 327 138 179 170 214 148 125 112 154 138 126 126 119 127 149 163 168 175 183 186 189 192 195 196 196 194 192 192 187 185 186 187 182 179 182 181 182 181 183 181 187 190 194 198 204 205 203 206
3 9 332 92 67 151 168 84 353 117 134 123 114 120 135 146 154 161 170 176 181 184 187 189 190 189 187 185 185 184 174 174 171 173 172 175 175 171 168 173 182 185 188 190 191 190 190 191 191
38 2 1 347 98 139 18 86 321 353 110 117 125 117 129 147 154 157 159 163 167 172 174 176 177 177 178 176 173 174 172 168 168 168 164 161 156 160 171 178 184 185 182 180 182 182 175 174 168
Height
1488 1491 1494 1499 1507 1498 1494 1485 1473 1469 1468 1466 1464 1469 1470 1470 1472 1492 1490 1493 1492 1495 1500 1505 1510 1514 1517 1520 1524 1528 1531 1533 1536 1538 1542 1543 1545 1547 1550 1551 1553 1554 1556 1558 1559 1560 1562 1563 1566
1486 1490 1495 1494 1500 1499 1489 1475 1474 1467 1465 1467 1467 1471 1472 1478 1476 1481 1487 1491 1493 1494 1500 1505 1510 1515 1517 1521 1525 1529 1532 1534 1538 1541 1543 1545 1547 1550 1552 1554 1555 1554 1557 1561 1563 1564 1565 1567 1569
1485 1490 1492 1491 1489 1489 1480 1465 1461 1460 1465 1470 1473 1473 1475 1481 1480 1482 1484 1489 1493 1495 1500 1505 1509 1514 1518 1521 1526 1529 1533 1536 1538 1541 1545 1547 1549 1552 1554 1557 1557 1558 1559 1562 1565 1567 1569 1571 1572
1483 1489 1489 1482 1477 1474 1471 1458 1456 1459 1467 1471 1474 1476 1476 1479 1480 1481 1484 1490 1493 1497 1500 1505 1509 1514 1519 1522 1527 1530 1533 1537 1539 1542 1545 1548 1551 1553 1556 1558 1559 1560 1563 1567 1569 1568 1571 1574 1575
1481 1482 1484 1478 1472 1466 1462 1455 1459 1460 1464 1469 1472 1473 1475 1477 1479 1481 1485 1489 1493 1496 1501 1506 1510 1514 1519 1522 1527 1531 1534 1538 1541 1543 1547 1550 1552 1555 1558 1560 1562 1565 1567 1569 1570 1572 1573 1576 1579
1476 1473 1473 1474 1467 1462 1456 1456 1457 1460 1461 1467 1471 1470 1475 1476 1478 1481 1485 1490 1491 1496 1500 1505 1510 1515 1519 1523 1527 1531 1535 1538 1543 1546 1549 1551 1554 1557 1560 1563 1566 1567 1570 1571 1573 1574 1575 1578 1580
1467 1465 1460 1458 1461 1456 1453 1452 1454 1458 1459 1463 1467 1469 1473 1474 1477 1481 1486 1489 1492 1497 1499 1504 1509 1514 1518 1523 1527 1531 1535 1539 1543 1547 1550 1551 1555 1559 1562 1565 1569 1570 1572 1574 1575 1577 1579 1580 1582
1463 1460 1455 1453 1455 1452 1446 1447 1449 1453 1458 1461 1464 1466 1471 1472 1475 1482 1487 1489 1493 1497 1500 1503 1508 1513 1517 1520 1526 1530 1534 1538 1542 1546 1548 1552 1555 1559 1562 1567 1570 1572 1574 1576 1578 1580 1582 1583 1585
1461 1460 1452 1449 1448 1439 1440 1442 1442 1449 1455 1458 1461 1461 1463 1467 1473 1478 1484 1488 1493 1497 1501 1503 1507 1511 1514 1519 1524 1529 1534 1539 1543 1548 1551 1554 1558 1561 1564 1567 1570 1573 1575 1578 1580 1582 1584 1586 1587
1445 1443 1442 1440 1440 1439 1440 1440 1441 1447 1452 1454 1457 1461 1465 1468 1471 1474 1479 1486 1490 1494 1500 1504 1507 1508 1513 1519 1524 1529 1534 1539 1544 1548 1552 1556 1559 1563 1566 1569 1573 1575 1577 1579 1582 1584 1586 1588 1589
1435 1426 1436 1437 1439 1438 1438 1437 1440 1445 1450 1448 1453 1456 1461 1466 1469 1474 1479 1484 1488 1493 1498 1502 1504 1509 1514 1518 1524 1529 1534 1538 1543 1548 1552 1556 1560 1563 1566 1570 1572 1575 1578 1580 1582 1586 1588 1589 1591
1432 1430 1433 1433 1436 1435 1435 1436 1435 1438 1442 1446 1449 1451 1458 1462 1466 1470 1476 1481 1486 1490 1494 1499 1504 1509 1514 1519 1522 1526 1532 1537 1543 1549 1552 1556 1559 1563 1566 1570 1573 1575 1578 1581 1584 1586 1589 1591 1593
1420 1424 1433 1433 1432 1431 1433 1431 1433 1435 1440 1443 1443 1447 1452 1459 1463 1468 1474 1479 1484 1487 1492 1498 1502 1509 1513 1519 1524 1530 1534 1539 1544 1548 1552 1555 1559 1563 1566 1570 1573 1575 1579 1581 1584 1587 1590 1592 1595
1416 1424 1425 1427 1428 1428 1432 1429 1430 1433 1437 1440 1441 1445 1451 1455 1459 1465 1471 1476 1481 1485 1490 1496 1501 1506 1513 1519 1524 1529 1534 1539 1544 1548 1552 1556 1559 1562 1566 1570 1573 1575 1578 1580 1584 1587 1590 1593 1595
1418 1420 1423 1419 1422 1423 1428 1428 1427 1432 1434 1437 1442 1446 1451 1456 1460 1462 1465 1471 1478 1484 1488 1494 1499 1506 1512 1518 1523 1528 1534 1538 1543 1548 1552 1556 1560 1563 1566 1570 1573 1575 1578 1580 1583 1587 1590 1593 1596
1411 1417 1408 1409 1418 1422 1426 1420 1425 1431 1432 1434 1439 1445 1449 1454 1457 1462 1465 1470 1476 1482 1486 1492 1497 1503 1510 1515 1521 1526 1531 1536 1541 1546 1551 1555 1559 1561 1565 1569 1573 1576 1578 1581 1583 1587 1590 1593 1596
1397 1386 1393 1405 1406 1415 1419 1421 1423 1427 1429 1431 1435 1440 1447 1452 1456 1460 1463 1469 1474 1479 1483 1490 1496 1501 1507 1513 1518 1525 1529 1535 1540 1545 1550 1554 1558 1560 1564 1568 1571 1575 1578 1581 1583 1586 1590 1593 1595
1377 1387 1387 1399 1399 1405 1413 1412 1416 1419 1424 1425 1429 1434 1441 1447 1453 1457 1460 1465 1472 1478 1483 1487 1491 1497 1505 1511 1517 1522 1528 1533 1538 1544 1548 1553 1557 1560 1563 1566 1570 1574 1577 1580 1584 1586 1588 1591 1593
1377 1388 1387 1387 1397 1405 1403 1411 1413 1414 1416 1421 1425 1428 1435 1441 1448 1454 1457 1462 1468 1475 1481 1484 1492 1496 1501 1508 1511 1519 1524 1530 1536 1541 1547 1551 1555 1559 1561 1564 1568 1573 1576 1579 1581 1584 1587 1590 1593
1383 1386 1385 1381 1384 1392 1399 1403 1408 1408 1411 1415 1417 1423 1431 1436 1442 1446 1454 1459 1465 1471 1477 1482 1488 1493 1499 1505 1511 1517 1522 1528 1534 1539 1545 1551 1554 1557 1560 1564 1566 1571 1574 1577 1580 1583 1586 1589 1591
1376 1382 1388 1384 1378 1384 1392 1399 1400 1400 1405 1410 1415 1420 1426 1430 1432 1442 1450 1455 1463 1468 1474 1479 1485 1490 1497 1504 1507 1514 1518 1525 1532 1537 1543 1547 1553 1556 1560 1562 1565 1569 1573 1576 1579 1582 1585 1587 1590
1367 1373 1378 1376 1378 1396 1396 1403 1399 1397 1401 1407 1412 1418 1424 1428 1432 1438 1447 1453 1459 1466 1471 1477 1480 1486 1493 1500 1506 1511 1517 1523 1528 1535 1540 1544 1550 1555 1558 1560 1564 1567 1571 1574 1577 1580 1583 1586 1588
1362 1367 1369 1376 1381 1390 1393 1402 1387 1390 1396 1409 1413 1420 1424 1431 1435 1439 1445 1453 1458 1464 1468 1473 1479 1483 1489 1496 1500 1509 1514 1520 1524 1532 1537 1543 1547 1552 1555 1559 1562 1564 1568 1571 1575 1578 1581 1584 1587
1366 1370 1374 1381 1384 1380 1380 1389 1393 1389 1395 1410 1414 1421 1424 1430 1434 1439 1445 1451 1457 1461 1466 1471 1476 1481 1485 1492 1497 1505 1512 1515 1523 1528 1533 1540 1544 1549 1554 1558 1561 1564 1567 1570 1572 1575 1578 1581 1584
1366 1366 1367 1367 1369 1365 1370 1382 1408 1414 1415 1411 1414 1421 1427 1432 1436 1441 1445 1450 1454 1459 1464 1469 1474 1479 1483 1490 1495 1502 1509 1512 1519 1524 1530 1535 1540 1546 1550 1556 1559 1562 1565 1569 1571 1573 1576 1579 1582
1371 1366 1369 1366 1362 1370 1375 1376 1406 1420 1420 1420 1421 1425 1431 1436 1440 1443 1446 1450 1454 1458 1463 1467 1471 1476 1481 1487 1492 1498 1505 1510 1517 1522 1528 1533 1539 1545 1549 1554 1557 1560 1563 1568 1571 1573 1574 1576 1579
1380 1373 1376 1379 1369 1377 1382 1408 1416 1417 1423 1426 1426 1428 1433 1437 1441 1444 1446 1449 1453 1457 1462 1466 1471 1475 1480 1485 1491 1496 1502 1509 1514 1521 1526 1532 1536 1542 1546 1552 1555 1558 1562 1566 1569 1571 1573 1575 1578
1382 1383 1380 1381 1380 1378 1381 1398 1410 1422 1426 1429 1432 1433 1435 1438 1441 1444 1446 1449 1452 1456 1461 1465 1469 1474 1478 1483 1488 1493 1499 1506 1510 1518 1523 1530 1534 1540 1545 1549 1553 1557 1561 1564 1567 1569 1571 1573 1575
1397 1397 1389 1378 1384 1373 1383 1414 1425 1420 1424 1429 1434 1433 1435 1439 1442 1444 1447 1450 1452 1456 1459 1464 1468 1473 1477 1482 1487 1492 1497 1504 1508 1517 1522 1528 1533 1539 1543 1548 1553 1557 1559 1562 1565 1568 1569 1572 1574
1410 1407 1399 1393 1384 1387 1383 1427 1427 1426 1428 1432 1437 1434 1437 1440 1443 1445 1448 1450 1453 1456 1460 1464 1468 1472 1478 1482 1487 1493 1497 1503 1508 1514 1519 1528 1533 1538 1544 1548 1552 1554 1558 1561 1564 1567 1569 1572 1574